Weather History for LEPP - October, 2012

Change the Weather History Date:

Sunday, October 28, 2012

  Actual Average Record
Temperature  
Mean Temperature 42 °F -  
Max Temperature 46 °F 53 °F 77 °F (2006)
Min Temperature 37 °F 41 °F 33 °F (2007)
Degree Days  
Heating Degree Days 24    
Moisture  
Dew Point 35 °F    
Average Humidity 79    
Maximum Humidity 93    
Minimum Humidity 62    
Precipitation  
Precipitation 0.00 in - - ()
Sea Level Pressure  
Sea Level Pressure 30.07 in    
Wind  
Wind Speed 11 mph ()    
Max Wind Speed 21 mph    
Max Gust Speed -    
Visibility 6.2 miles    
Events Rain    
Averages and records for this station are not official NWS values.
T = Trace of Precipitation, MM = Missing Value Source: Averaged Metar Reports

Daily Weather History Graph

Daily Weather History Graph

Search for Another Location

Airport or City:

Trip Planner

Search our weather history database for the weather conditions in past years. The results will help you decide how hot, cold, wet, or windy it might be!

Date:

Astronomy

Oct. 28, 2012 Rise Set
Actual Time 7:35 AM CET 6:04 PM CET
Civil Twilight 7:06 AM CET 6:33 PM CET
Nautical Twilight 6:33 AM CET 7:06 PM CET
Astronomical Twilight 6:00 AM CET 7:39 PM CET
Moon 5:14 PM CET (10/28) 6:13 AM CET (10/28)
Length of Visible Light 11h 26m
Length of Day
10h 28m
Waxing Gibbous, 98% of the Moon is Illuminated
Oct 28
Waxing Gibbous
Oct 29
Full
Nov 7
Last Quarter
Nov 13
New
Nov 20
First Quarter

Hourly Weather History & Observations

Time (CET) Temp. Windchill Dew Point Humidity Pressure Visibility Wind Dir Wind Speed Gust Speed Precip Events Conditions
12:00 AM 39.2 °F 29.3 °F 32.0 °F 75% 30.01 in 6.2 mi North 20.7 mph - N/A   Partly Cloudy
5:30 AM 37.4 °F 28.9 °F 35.6 °F 93% 30.04 in 6.2 mi NW 13.8 mph - N/A Rain Light Rain
6:00 AM 37.4 °F 29.8 °F 35.6 °F 93% 30.04 in 6.2 mi NW 11.5 mph - N/A Rain Light Rain
6:30 AM 37.4 °F 29.3 °F 35.6 °F 93% 30.04 in 6.2 mi NW 12.7 mph - N/A   Scattered Clouds
7:00 AM 37.4 °F 29.3 °F 35.6 °F 93% 30.04 in 6.2 mi NW 12.7 mph - N/A   Scattered Clouds
7:30 AM 37.4 °F 29.3 °F 35.6 °F 93% 30.06 in 6.2 mi NW 12.7 mph - N/A   Scattered Clouds
8:00 AM 37.4 °F 30.8 °F 35.6 °F 93% 30.06 in 6.2 mi NW 9.2 mph - N/A   Scattered Clouds
8:30 AM 39.2 °F 32.5 °F 33.8 °F 81% 30.06 in 6.2 mi NNW 10.4 mph - N/A   Mostly Cloudy
9:00 AM 41.0 °F 34.7 °F 35.6 °F 81% 30.09 in 6.2 mi NNW 10.4 mph - N/A   Mostly Cloudy
9:30 AM 41.0 °F 33.9 °F 33.8 °F 76% 30.09 in 6.2 mi NW 12.7 mph - N/A   Mostly Cloudy
10:30 AM 42.8 °F 36.6 °F 33.8 °F 70% 30.09 in 6.2 mi NW 11.5 mph - N/A   Mostly Cloudy
11:00 AM 44.6 °F 39.2 °F 33.8 °F 66% 30.09 in 6.2 mi NNW 10.4 mph - N/A   Scattered Clouds
11:30 AM 42.8 °F 37.5 °F 33.8 °F 70% 30.09 in 6.2 mi NW 9.2 mph - N/A   Scattered Clouds
12:00 PM 44.6 °F 38.8 °F 35.6 °F 71% 30.09 in 6.2 mi NNW 11.5 mph - N/A   Mostly Cloudy
12:30 PM 44.6 °F 38.1 °F 35.6 °F 71% 30.09 in 6.2 mi NW 13.8 mph - N/A   Mostly Cloudy
1:00 PM 46.4 °F 40.1 °F 35.6 °F 66% 30.09 in 6.2 mi NNW 15.0 mph - N/A   Mostly Cloudy
1:30 PM 46.4 °F 40.1 °F 35.6 °F 66% 30.09 in 6.2 mi NNW 15.0 mph - N/A   Mostly Cloudy
2:00 PM 46.4 °F 39.5 °F 35.6 °F 66% 30.06 in 6.2 mi NNW 17.3 mph - N/A   Mostly Cloudy
2:30 PM 46.4 °F 40.1 °F 35.6 °F 66% 30.06 in 6.2 mi NW 15.0 mph - N/A   Mostly Cloudy
3:00 PM 46.4 °F 39.0 °F 33.8 °F 62% 30.06 in 6.2 mi NNW 19.6 mph - N/A   Mostly Cloudy
3:30 PM 46.4 °F 39.8 °F 35.6 °F 66% 30.06 in 6.2 mi NNW 16.1 mph - N/A   Scattered Clouds
4:30 PM 44.6 °F 37.4 °F 35.6 °F 71% 30.06 in 6.2 mi NNW 16.1 mph - N/A   Mostly Cloudy
5:00 PM 44.6 °F 37.8 °F 35.6 °F 71% 30.06 in 6.2 mi NNW 15.0 mph - N/A   Mostly Cloudy
5:30 PM 42.8 °F 35.4 °F 35.6 °F 76% 30.09 in 6.2 mi North 15.0 mph - N/A   Mostly Cloudy
6:00 PM 42.8 °F 36.6 °F 35.6 °F 76% 30.09 in 6.2 mi NNW 11.5 mph - N/A   Scattered Clouds
6:30 PM 41.0 °F 34.7 °F 35.6 °F 81% 30.09 in 6.2 mi NNW 10.4 mph - N/A   Partly Cloudy
7:00 PM 41.0 °F 35.2 °F 35.6 °F 81% 30.09 in 6.2 mi North 9.2 mph - N/A   Partly Cloudy
7:30 PM 41.0 °F 35.2 °F 35.6 °F 81% 30.09 in 6.2 mi NNW 9.2 mph - N/A   Partly Cloudy
8:00 PM 39.2 °F 37.0 °F 35.6 °F 87% 30.09 in 6.2 mi NW 3.5 mph - N/A   Partly Cloudy
8:30 PM 39.2 °F 37.0 °F 35.6 °F 87% 30.09 in 6.2 mi WNW 3.5 mph - N/A   Scattered Clouds
9:00 PM 41.0 °F 39.0 °F 37.4 °F 87% 30.09 in 6.2 mi NW 3.5 mph - N/A   Scattered Clouds
9:30 PM 41.0 °F 36.4 °F 37.4 °F 87% 30.09 in 6.2 mi NW 6.9 mph - N/A   Scattered Clouds
10:00 PM 39.2 °F 35.0 °F 37.4 °F 93% 30.09 in 6.2 mi NNW 5.8 mph - N/A   Scattered Clouds
10:30 PM 39.2 °F - 35.6 °F 87% 30.09 in 6.2 mi Variable 1.2 mph - N/A   Partly Cloudy